Theta_e
330 327 325 325 325 324 323 322 320 319 318 317 316 315 314 314 313 311 311 310 309 308 307 307 306 306 305 305 304 303 301 300 299 298 299 299 298 298 298 298 298 297 297 297 297 296 296 296 296 296 296 296 296 296 296 297 297 297 296 296 296 296 297 297 297 297 297 296 296 296 296 296 296 296 296 297 297 297 297 297 298 298 298 298 297
329 327 325 324 323 322 321 320 318 318 317 316 316 314 314 313 312 311 310 309 309 308 307 306 306 305 305 304 302 301 300 299 298 298 299 298 298 298 298 297 297 297 296 296 296 296 295 295 295 295 296 296 296 296 296 296 297 296 296 296 295 295 296 296 297 297 297 296 296 296 296 295 296 296 296 296 296 297 297 297 298 298 297 298 297
327 326 325 324 322 321 319 318 318 317 316 315 314 313 313 312 311 310 309 309 308 308 307 306 305 304 304 302 301 300 299 298 298 298 298 298 298 297 297 297 296 296 296 296 295 295 295 295 295 295 296 296 296 296 296 296 297 296 296 295 295 295 295 295 295 296 296 296 295 295 295 295 295 296 296 296 296 296 297 297 297 297 298 297 297
326 325 324 322 320 319 318 317 317 316 315 314 313 312 311 310 310 309 308 308 308 307 306 305 305 304 302 301 299 299 299 298 298 298 298 298 297 297 296 296 296 296 295 295 295 295 295 295 295 296 296 296 296 296 296 296 296 296 295 295 295 295 295 295 295 295 295 295 295 295 295 295 295 295 295 295 296 296 297 297 297 297 298 297 297
324 323 322 320 319 318 317 316 316 315 314 313 311 311 310 309 308 307 307 307 307 306 305 305 304 303 301 299 298 299 298 298 298 298 298 298 297 297 296 296 296 296 295 295 295 295 295 295 295 295 295 295 295 295 296 296 296 296 295 295 295 295 295 295 294 294 294 294 294 294 294 294 294 295 295 295 296 296 297 297 297 297 297 297 297
323 321 320 319 317 317 316 315 315 314 313 311 310 309 308 307 306 306 306 307 306 305 305 304 303 302 300 298 298 298 298 298 298 298 297 297 297 296 296 296 295 295 295 295 295 295 295 295 295 295 295 295 295 295 295 295 296 295 295 295 295 295 295 295 294 294 294 294 294 294 294 294 294 294 294 295 295 296 296 297 297 297 297 297 297
322 320 319 318 317 316 315 314 314 313 311 310 309 308 307 306 305 305 305 306 306 305 304 303 302 301 298 297 298 298 298 298 298 297 297 297 296 296 296 296 295 295 295 295 295 295 295 295 295 295 295 295 294 294 294 295 295 295 295 295 295 295 295 294 294 294 293 293 294 294 293 293 294 294 294 294 295 296 296 296 297 297 297 297 296
320 319 318 317 316 315 314 313 312 311 310 308 307 306 306 305 304 303 304 305 305 304 304 303 301 299 297 297 298 298 298 298 297 297 297 296 296 296 295 295 295 295 296 295 295 295 295 295 295 294 294 294 294 294 294 295 295 295 295 295 295 294 294 294 294 293 293 293 293 293 293 293 293 293 294 294 295 295 295 296 296 297 297 296 296
319 318 317 316 315 313 312 311 310 309 308 306 306 305 304 304 303 302 303 305 305 304 303 302 299 298 297 298 298 298 298 298 297 297 297 297 296 296 295 295 295 295 295 295 295 295 295 295 295 294 294 294 293 293 293 294 295 295 295 295 294 294 294 294 293 293 293 293 293 293 293 293 293 293 293 294 294 295 295 295 296 297 296 296 296
317 316 315 314 313 312 310 309 308 307 306 305 305 304 304 303 301 302 304 305 304 303 302 300 298 298 298 298 298 298 298 298 297 297 297 297 296 296 295 295 295 295 295 295 295 295 295 295 294 294 293 292 292 292 293 294 295 294 295 294 294 294 294 293 293 293 292 292 293 292 293 293 293 293 293 293 294 294 294 295 296 296 296 296 296
316 315 314 313 311 310 308 307 306 306 305 305 304 303 302 301 300 302 304 304 303 303 302 299 298 298 299 298 298 298 298 297 297 297 297 297 296 296 295 295 295 295 295 295 295 295 295 294 294 294 293 292 291 292 293 294 294 294 295 295 294 294 293 293 292 292 292 292 292 292 292 292 292 292 293 293 293 293 294 295 296 296 296 296 296
315 314 313 311 309 308 307 306 305 304 304 303 302 301 299 298 299 302 304 303 303 303 302 299 298 298 299 299 299 298 298 298 297 297 297 297 296 295 295 295 295 295 295 295 295 295 294 294 294 294 293 292 291 291 292 293 294 294 294 294 294 294 294 293 293 292 292 292 292 292 292 291 292 292 292 292 293 293 294 295 295 296 296 295 295
313 312 311 310 308 307 306 305 304 303 303 302 300 298 297 298 300 303 303 303 302 302 302 300 298 298 299 299 299 299 299 298 298 297 296 296 295 295 295 295 295 295 295 295 295 295 294 294 293 293 293 291 290 291 292 293 293 293 294 294 294 294 294 294 294 293 293 292 292 292 292 291 291 292 292 292 292 293 294 294 295 295 295 295 295
312 311 310 309 307 306 305 304 303 302 302 301 299 297 297 299 301 302 303 303 302 302 302 300 298 299 299 300 300 300 299 299 298 297 296 295 295 295 295 295 295 295 295 295 295 295 294 293 293 293 292 291 290 290 291 292 293 293 293 293 294 294 294 294 294 294 294 293 292 292 293 292 292 292 292 292 292 293 293 294 295 295 295 295 295
312 310 309 307 306 305 304 303 303 302 301 301 299 297 298 299 301 302 302 302 302 302 301 301 300 300 300 300 300 300 300 300 299 298 297 295 295 295 295 296 296 296 295 295 295 294 294 293 292 292 292 291 290 290 290 291 292 292 292 293 293 294 294 294 294 294 294 294 294 293 293 293 292 292 292 292 292 293 293 294 294 295 295 295 295
310 309 308 306 305 304 303 303 302 302 301 300 298 297 298 299 300 301 301 301 302 302 301 301 301 300 300 300 300 300 301 300 300 299 297 296 295 295 295 296 296 296 295 295 294 294 294 293 292 292 291 291 291 290 290 290 291 291 291 292 292 293 293 294 294 294 294 294 294 294 294 294 293 293 292 292 292 293 293 294 294 294 295 295 295
309 308 307 305 305 304 303 303 302 301 301 300 298 297 298 299 299 300 301 301 301 301 301 301 301 300 300 300 300 301 301 301 300 300 298 297 296 295 295 295 296 295 295 295 294 294 294 293 292 292 291 291 291 290 290 290 290 291 291 291 291 291 292 293 293 294 294 294 294 294 294 294 293 293 293 293 293 293 293 293 294 294 295 295 295
308 307 306 306 306 304 304 304 303 302 302 301 298 296 297 298 299 300 300 300 301 301 301 301 301 300 300 301 301 301 301 301 300 300 299 298 297 296 295 295 295 295 295 294 294 294 294 293 292 292 291 291 291 290 290 289 290 290 290 291 291 291 291 292 292 293 293 294 294 294 294 294 294 293 293 293 293 293 293 293 293 294 295 295 295
307 308 309 309 307 305 304 304 304 303 302 300 297 296 295 296 299 300 300 300 300 300 300 301 300 301 301 301 301 301 301 301 301 300 299 299 298 297 295 295 295 295 295 294 294 293 293 293 293 292 292 291 291 290 290 289 290 290 290 290 291 291 291 291 292 292 293 293 294 294 294 294 294 294 293 293 293 293 293 293 293 294 294 295 295
308 310 310 307 305 304 304 304 303 303 302 299 297 296 295 296 298 299 299 299 300 300 300 300 300 301 301 301 301 300 300 301 301 300 300 299 298 297 296 295 295 295 295 294 294 293 293 293 293 293 292 291 291 290 289 289 289 290 290 290 290 290 291 290 291 291 292 293 293 293 293 294 294 294 294 293 293 293 293 293 293 293 294 294 294
308 309 307 305 304 304 303 303 303 303 302 300 298 297 296 296 297 298 299 299 299 299 300 300 300 300 300 300 301 300 300 300 300 300 299 299 298 298 297 296 295 295 295 294 294 294 293 293 293 293 292 292 291 290 289 289 289 289 289 290 290 290 290 290 290 290 291 292 293 293 293 293 293 294 294 294 293 293 293 293 293 293 293 294 294
308 307 306 305 304 303 303 303 303 302 301 300 298 297 296 295 296 297 298 299 299 299 299 299 299 300 299 300 300 300 300 300 299 299 299 298 298 298 298 296 295 295 295 294 294 294 293 293 293 293 293 292 291 290 289 288 289 289 289 289 289 290 290 289 289 289 290 290 291 292 292 293 293 293 293 293 294 293 293 293 293 293 293 293 293
308 307 306 305 304 304 303 303 302 302 301 301 300 297 296 295 296 297 298 298 298 298 298 298 298 298 298 298 298 299 299 299 299 299 298 298 298 298 297 295 295 295 295 294 294 294 293 293 293 293 293 292 291 290 289 289 289 289 289 289 289 289 289 289 289 289 289 289 289 290 291 291 292 292 293 293 293 293 293 293 293 293 293 293 293
307 306 305 305 304 304 303 302 302 302 302 302 301 297 295 295 296 297 297 297 297 297 297 297 297 297 296 296 296 297 297 297 297 298 298 298 298 297 296 295 295 295 295 295 295 294 294 294 293 293 293 292 291 290 289 289 289 289 289 289 289 289 289 289 289 289 289 289 289 289 289 290 291 291 292 292 293 293 294 293 293 293 293 293 293
307 305 305 304 304 304 303 302 302 302 302 302 301 297 295 295 296 296 296 296 296 296 296 296 296 295 295 295 295 295 295 295 295 296 296 296 296 296 295 295 295 295 295 295 295 295 294 294 294 293 293 292 292 291 290 290 290 289 289 289 289 289 289 289 289 289 289 289 289 289 289 289 290 290 291 292 293 293 294 294 293 293 293 293 293
306 305 305 304 304 304 303 302 303 303 303 303 301 298 296 295 295 295 295 295 295 295 295 295 295 294 294 294 294 294 294 294 294 294 294 295 295 295 295 295 295 295 295 295 295 295 294 294 294 293 293 293 292 291 290 290 290 290 290 289 289 289 289 289 290 289 290 289 289 289 289 288 289 290 290 291 292 292 293 293 294 293 293 293 293
305 304 304 304 304 304 303 303 303 303 303 302 300 299 298 297 295 294 295 295 295 294 295 294 294 295 295 295 295 295 294 294 294 294 294 294 294 294 295 295 295 295 295 295 295 295 294 294 294 293 293 293 293 292 291 291 291 291 290 290 290 290 290 290 290 290 290 290 290 290 289 288 288 289 289 290 291 291 292 293 293 293 293 293 293
305 304 304 304 303 303 303 303 303 302 302 301 300 299 300 299 297 295 294 294 295 295 295 295 296 296 296 295 295 295 295 295 293 293 293 293 293 294 295 295 295 295 295 295 295 295 295 294 294 294 293 293 293 293 292 292 291 291 291 291 292 291 291 290 290 289 289 290 290 290 290 289 289 288 289 289 290 290 291 292 292 293 292 292 292
304 304 304 303 303 303 303 303 303 302 302 301 301 301 301 301 300 297 295 294 295 295 295 296 297 296 296 296 296 296 296 295 292 292 293 293 293 294 294 294 295 295 295 295 295 295 295 294 294 294 294 293 293 293 293 292 292 292 292 292 292 292 292 292 291 290 289 289 290 290 290 290 289 289 289 289 289 289 290 290 291 292 292 291 290
304 303 303 303 302 302 302 302 302 302 301 301 300 301 301 301 302 300 297 295 296 296 295 296 296 297 297 297 297 296 296 294 292 292 293 293 293 294 294 294 295 295 295 295 295 295 294 294 294 294 294 294 294 293 293 293 293 292 292 292 292 292 293 293 292 291 290 290 290 290 291 291 290 290 289 289 289 289 289 289 290 290 290 289 289
303 302 302 302 302 302 302 302 302 301 301 301 301 300 300 300 301 301 298 297 298 298 298 297 298 298 298 298 298 297 297 294 292 292 293 293 293 294 294 294 294 295 295 295 295 295 295 294 294 294 294 294 294 294 294 293 293 293 292 292 293 293 293 293 293 293 293 292 291 291 291 291 291 291 290 290 289 289 289 289 289 289 289 289 288
303 302 302 302 302 302 302 301 301 301 300 300 300 300 299 298 298 298 298 298 299 300 300 300 300 300 300 299 299 298 298 295 292 291 292 292 293 293 294 294 295 295 295 295 295 295 295 295 295 295 294 294 294 294 294 294 294 293 293 293 293 293 293 293 293 293 294 293 293 292 292 292 292 292 291 291 290 290 289 289 289 289 289 289 289
303 302 301 301 301 301 301 301 301 300 300 300 299 299 298 297 297 297 298 299 300 300 300 301 301 301 301 301 300 300 299 297 294 292 291 292 293 293 294 294 295 295 295 295 295 295 295 295 295 295 295 295 295 295 295 294 294 294 293 293 293 293 293 293 293 293 293 293 293 293 293 292 292 292 292 292 291 291 290 290 289 289 289 289 289
303 303 302 302 301 301 301 301 300 300 301 300 299 298 297 297 298 298 298 299 299 300 300 301 301 301 301 301 301 301 300 298 295 293 291 292 292 293 294 294 295 295 295 295 296 296 295 295 295 296 295 295 295 295 295 295 295 294 294 293 293 292 292 293 293 293 293 293 293 293 293 293 292 292 292 292 292 292 291 291 290 290 290 290 289
303 303 302 302 302 301 301 301 300 300 300 300 300 299 298 298 299 300 300 299 299 300 300 301 301 302 301 301 301 301 300 298 296 293 291 291 292 293 294 294 295 295 295 296 296 296 296 295 296 296 296 295 295 295 295 295 295 295 295 294 294 293 293 293 293 293 293 293 293 293 293 293 293 293 292 292 292 292 292 291 291 291 290 290 290
303 302 302 301 301 301 301 301 301 301 301 301 301 300 300 300 301 300 300 300 300 300 300 301 301 301 301 301 301 300 299 298 295 292 291 291 292 293 293 294 295 295 295 296 296 296 296 296 296 296 296 296 296 296 296 296 296 296 295 295 294 294 293 293 293 293 293 293 293 293 293 293 293 293 293 293 292 292 292 292 292 291 291 291 291
302 302 302 301 301 301 301 301 301 301 301 301 301 301 301 301 301 300 300 300 300 300 300 300 300 300 300 300 300 299 298 296 293 291 290 291 292 292 293 294 294 295 295 296 296 296 296 296 296 296 296 296 296 296 296 296 296 296 296 296 295 294 294 294 294 294 294 294 294 294 293 293 293 293 292 293 293 293 292 292 292 292 292 291 291
302 302 302 302 301 301 300 300 300 300 300 300 300 301 301 300 300 300 300 300 300 300 300 299 299 299 299 299 298 298 296 293 291 290 290 290 290 291 292 293 294 294 295 295 296 296 296 296 296 296 297 297 296 296 296 296 296 296 296 296 296 296 295 295 295 295 295 295 295 295 294 294 293 293 292 292 293 293 293 292 292 292 292 292 291
302 302 302 302 301 301 300 300 299 299 299 300 300 300 300 300 300 300 300 300 300 299 298 298 298 298 298 298 297 295 293 291 290 290 290 290 290 290 291 291 292 293 294 295 296 296 296 296 297 296 296 297 296 297 297 296 296 296 296 296 296 296 296 296 296 295 295 295 295 295 295 295 294 294 293 293 293 293 293 293 293 292 292 292 292
302 302 301 300 300 300 300 299 299 299 299 299 300 300 300 300 300 300 300 299 299 298 297 298 298 298 298 297 296 293 291 290 290 290 290 290 290 290 290 291 291 292 293 295 295 296 296 296 296 296 296 296 297 297 297 297 296 297 297 296 296 297 296 296 296 296 296 296 296 295 295 295 295 295 295 294 294 294 293 293 293 293 293 292 292
301 301 300 300 300 300 299 299 299 299 299 299 299 300 300 300 300 300 300 299 298 297 298 298 298 299 299 297 294 292 291 290 290 290 290 290 290 291 291 292 292 293 294 295 295 296 296 296 296 297 297 297 297 297 297 297 297 297 297 297 296 296 296 296 296 296 296 296 296 296 296 295 295 295 295 295 295 294 294 294 294 294 293 293 293
301 300 300 300 300 300 299 299 299 299 299 299 299 300 300 300 300 300 300 299 299 298 298 299 299 298 297 294 292 291 290 290 290 290 291 291 292 293 294 294 294 295 295 295 296 296 295 295 295 296 297 297 297 297 297 297 297 297 297 297 297 297 296 296 296 296 296 296 296 296 296 295 295 295 294 294 294 294 294 294 294 294 294 294 293
301 301 300 300 300 299 298 298 298 298 298 299 299 300 300 300 300 300 299 299 299 298 298 298 298 296 294 291 290 290 290 290 291 291 293 294 295 296 296 296 296 296 296 296 296 296 295 295 295 296 296 297 297 297 297 297 297 297 297 297 297 297 297 296 296 296 296 296 295 295 295 295 295 295 294 294 294 294 294 294 294 294 294 294 294
300 300 300 299 298 298 297 297 298 298 298 299 300 300 300 300 299 299 299 298 298 298 297 297 296 294 292 291 291 292 293 294 294 295 296 297 297 298 298 298 298 298 297 297 297 297 296 296 296 296 296 296 297 297 297 297 297 297 297 297 297 296 296 296 296 295 295 295 295 295 295 295 295 295 295 294 294 294 294 294 294 294 294 294 294
300 299 298 298 297 297 297 297 298 298 299 299 299 299 299 299 299 298 298 298 298 297 296 295 293 292 292 293 294 296 297 297 298 298 299 298 299 299 299 299 299 299 298 298 298 297 297 297 297 297 297 297 297 297 297 297 297 297 297 296 296 296 296 296 296 295 295 295 295 296 296 296 296 296 296 295 295 294 294 295 295 294 294 294 294
299 298 298 297 297 297 297 297 298 298 299 299 299 298 298 298 298 298 298 298 296 294 293 293 293 293 294 296 297 298 299 299 299 299 299 299 298 298 298 298 298 299 298 298 298 297 297 297 297 297 297 297 297 297 297 297 297 296 296 296 297 297 297 297 296 296 296 296 296 296 296 296 297 297 296 296 296 295 295 294 294 294 294 294 294
298 298 298 298 297 297 297 297 297 298 298 298 298 297 297 297 297 297 297 296 294 293 294 295 297 297 298 298 299 299 299 299 299 299 298 299 299 298 298 298 298 298 298 297 297 297 297 297 297 297 297 297 297 297 297 297 297 297 297 297 297 297 297 297 297 296 296 296 296 295 295 296 296 296 296 296 296 295 295 294 294 293 293 293 293
298 298 298 298 297 297 297 297 297 297 297 297 297 297 297 297 297 297 297 296 294 293 294 296 298 299 299 299 299 299 299 299 299 299 299 299 299 299 298 298 298 298 298 298 298 298 297 297 297 297 297 297 297 297 297 297 297 297 297 297 297 297 297 297 297 296 296 296 295 295 295 295 295 295 295 295 295 294 294 294 294 293 293 292 292
298 298 298 298 297 297 297 298 298 299 299 299 299 299 299 298 297 297 297 295 294 293 295 296 298 299 299 299 299 299 299 299 299 299 299 299 299 299 299 299 299 298 298 298 298 298 298 297 297 298 298 298 297 297 297 297 297 297 297 297 297 296 296 296 295 295 295 295 294 294 294 294 294 294 294 294 294 294 294 293 293 293 292 292 292
298 298 298 298 298 298 298 299 299 300 300 300 300 300 299 298 297 297 296 296 295 296 297 298 299 299 299 299 299 299 299 299 299 299 299 299 299 299 299 298 298 298 298 298 298 298 297 297 297 297 297 297 296 296 296 296 296 296 296 296 295 295 295 294 294 294 294 293 293 293 293 293 293 293 293 293 293 293 293 293 293 293 292 292 292
298 298 298 298 298 298 298 298 299 299 299 299 300 299 299 298 298 298 298 299 299 300 300 300 299 299 300 300 300 299 299 299 299 299 299 299 299 299 298 298 298 298 298 297 297 297 297 297 297 296 296 296 295 295 295 295 295 295 294 294 294 293 293 293 293 293 292 292 292 292 292 292 291 291 291 292 292 292 292 292 292 291 291 291 291
Wind_Speed
22 22 24 26 27 27 26 26 26 26 25 23 22 21 20 19 18 18 19 18 18 18 19 20 20 20 19 18 16 16 16 17 18 19 23 26 28 29 30 31 31 30 29 28 26 25 24 23 21 20 19 18 18 17 18 18 18 18 18 19 20 19 16 12 9 15 26 31 30 34 36 36 37 38 39 41 43 44 43 42 40 39 39 39 39
23 22 22 24 25 27 27 27 26 25 24 23 22 22 21 20 19 19 19 19 18 19 20 21 20 19 18 17 17 17 18 19 20 22 26 28 29 30 30 30 30 29 28 26 24 23 22 22 21 19 18 17 17 17 17 18 18 19 20 20 21 22 19 15 13 13 22 33 35 35 37 37 36 38 39 38 41 43 43 43 42 41 40 38 37
24 23 23 24 25 26 27 27 26 25 24 23 22 22 22 21 20 20 20 20 20 20 21 21 20 18 18 17 17 19 20 21 22 24 27 29 30 30 29 28 28 27 26 24 23 22 21 21 20 19 17 16 17 17 16 17 18 19 20 21 21 23 23 20 18 15 19 28 34 35 36 37 36 37 38 37 39 41 40 40 41 41 40 37 36
25 24 24 24 25 26 26 27 26 25 24 24 23 24 23 22 22 20 20 21 21 22 21 21 20 19 18 18 19 20 21 22 24 26 27 28 29 28 27 27 26 25 24 23 21 21 21 20 20 18 18 17 17 17 17 17 18 19 20 21 22 23 24 24 22 20 19 25 31 33 33 34 35 36 37 37 38 38 37 37 39 39 38 35 36
25 25 25 26 26 26 26 26 25 25 25 25 25 25 24 24 23 21 21 22 22 23 23 21 20 19 19 19 21 22 22 23 25 27 27 27 27 27 26 25 24 23 22 21 21 20 20 20 19 18 18 19 19 18 18 17 18 19 19 21 23 23 25 25 25 25 23 24 29 32 33 33 34 36 36 37 38 37 35 36 36 36 37 37 37
26 26 26 27 27 27 26 26 25 25 25 26 26 26 25 25 23 21 21 23 24 25 24 22 20 19 20 20 22 23 23 23 25 26 26 26 25 25 25 24 23 22 21 21 20 20 20 19 18 18 18 19 19 19 19 18 17 18 20 21 23 24 25 26 27 27 26 26 28 31 34 35 34 34 35 36 35 34 36 39 37 34 37 40 39
27 27 27 27 27 26 26 25 25 25 25 27 27 27 25 24 22 21 22 23 25 26 24 23 20 20 21 22 23 23 23 23 24 25 24 24 24 24 23 23 22 21 20 20 19 19 18 18 17 17 17 18 19 19 19 18 17 18 19 21 23 24 25 27 28 28 28 28 28 29 31 33 32 33 36 35 31 30 35 38 38 37 38 39 40
28 28 27 27 26 26 26 25 25 26 26 27 27 26 25 23 21 21 23 24 26 26 25 24 22 21 22 23 23 23 22 22 22 23 23 22 22 22 22 21 20 20 19 18 18 17 17 17 17 17 17 16 17 19 18 18 17 17 19 21 22 24 25 27 28 28 28 28 28 29 30 31 31 34 37 36 31 31 36 35 34 37 38 37 39
29 28 27 27 26 26 26 26 26 26 27 27 27 25 23 22 21 22 24 26 27 27 26 24 24 25 25 24 24 23 22 21 20 21 21 21 21 20 20 19 18 18 17 16 16 15 15 15 16 16 15 15 16 17 17 16 16 17 18 20 22 24 25 27 28 27 28 27 27 29 28 28 30 33 33 32 30 33 38 35 31 35 37 35 36
29 28 27 27 27 27 27 27 27 27 27 26 25 24 22 21 21 23 26 28 28 28 27 26 27 28 28 26 25 23 22 21 20 19 19 19 19 19 19 17 16 15 15 15 14 14 14 14 14 15 15 16 17 17 16 14 14 15 16 19 21 23 25 26 27 27 27 26 27 27 24 24 31 33 31 33 34 35 38 36 32 35 36 31 29
29 29 28 28 29 29 28 28 28 27 27 26 24 22 21 20 22 25 28 29 29 29 28 28 29 28 28 26 25 24 23 21 20 18 17 17 17 17 17 16 15 14 14 14 13 13 12 12 13 14 16 18 18 17 16 15 14 13 14 16 18 21 24 25 26 26 26 26 28 28 24 25 32 35 33 35 38 38 38 34 32 34 34 28 24
29 29 29 30 30 29 29 29 29 28 26 25 22 21 20 21 24 27 29 30 31 30 29 29 29 27 26 25 24 23 22 21 19 18 16 16 15 15 16 15 14 13 12 12 12 12 11 12 12 13 15 17 18 18 17 16 15 14 14 14 15 18 22 23 25 26 26 25 28 30 28 28 32 35 36 37 37 38 37 34 33 33 32 30 26
29 29 30 30 30 30 30 30 29 28 26 24 22 21 21 23 25 27 29 30 31 31 29 30 29 26 24 23 22 21 21 19 18 17 15 15 15 15 15 14 13 12 11 11 11 11 11 11 12 13 14 16 18 19 18 17 16 15 16 16 15 17 20 22 24 26 27 26 27 29 30 29 31 34 36 36 35 36 36 36 35 33 32 32 31
30 30 31 31 30 30 30 30 30 29 27 25 23 22 22 24 26 27 29 30 31 31 30 30 29 26 23 22 21 20 19 18 17 15 15 15 15 15 14 13 12 11 10 10 10 10 11 11 12 12 14 16 18 19 18 18 18 17 18 18 17 17 18 21 24 25 28 28 27 29 31 30 31 33 34 35 34 33 34 36 36 33 32 32 31
31 31 31 30 31 31 31 31 31 29 27 25 24 23 24 25 27 27 28 29 30 30 30 29 28 26 24 22 21 19 18 18 16 14 13 14 14 14 13 12 11 10 9 8 9 9 9 11 11 12 13 15 17 18 18 18 18 18 20 20 20 19 18 20 23 24 27 28 28 30 31 31 32 33 33 34 33 32 32 33 32 30 31 31 29
31 31 31 30 31 32 32 32 31 30 28 26 24 24 25 26 27 27 27 28 29 29 28 28 27 25 24 22 20 19 18 17 17 15 12 12 13 12 12 11 9 8 8 7 7 8 8 9 10 11 13 13 15 17 17 17 17 19 21 22 22 22 21 20 20 21 24 26 27 29 30 32 34 34 34 34 33 34 34 33 32 30 29 28 27
31 32 31 31 32 32 33 33 32 30 29 26 25 25 26 26 27 27 27 28 28 28 27 26 25 24 23 21 20 19 18 17 17 15 13 11 10 10 10 9 8 7 7 6 6 7 7 8 9 10 12 12 14 16 17 17 18 19 21 22 23 24 25 24 23 22 23 24 26 28 29 32 35 36 37 36 34 36 36 34 34 33 29 23 22
32 32 31 31 33 34 34 34 33 32 29 27 27 26 25 25 26 27 27 28 28 27 26 25 24 23 21 20 18 18 17 18 18 16 13 10 8 8 9 8 7 6 6 6 6 6 6 7 8 9 11 11 12 14 16 16 17 19 21 22 23 24 25 26 26 25 24 25 26 28 30 33 36 37 39 38 37 37 36 33 33 32 28 23 23
35 35 34 34 36 37 37 37 36 34 30 27 27 25 23 24 26 26 26 27 27 26 25 25 23 21 20 18 17 17 17 18 19 17 13 11 8 7 7 7 7 5 5 5 6 5 5 5 7 8 10 10 11 13 14 15 16 18 19 20 22 23 23 24 24 24 25 26 27 29 31 33 35 37 39 40 39 39 37 35 33 31 27 25 27
37 37 35 35 37 38 38 38 37 35 32 29 28 24 22 24 26 26 26 26 26 25 24 24 22 21 19 18 17 17 17 18 19 17 13 11 9 7 6 7 7 5 5 5 5 5 4 4 5 7 9 10 11 12 13 14 15 16 17 18 20 21 22 22 22 22 23 25 26 28 30 32 34 36 37 39 41 40 39 37 35 32 27 25 29
36 35 34 34 36 36 36 36 35 34 33 32 30 27 24 23 24 26 27 26 26 25 24 23 22 21 19 18 17 16 16 17 17 16 13 12 11 8 6 6 7 6 4 4 4 4 3 3 4 6 8 9 10 11 11 12 13 13 15 16 16 18 19 21 22 22 23 24 25 27 29 31 33 35 36 38 39 40 40 39 36 34 29 26 27
35 34 33 34 35 34 34 34 34 34 33 32 30 28 26 24 24 26 28 27 27 26 25 24 23 21 20 18 17 17 16 15 15 15 13 12 11 9 6 6 8 6 4 4 3 2 2 3 4 5 7 9 10 10 10 11 12 12 13 14 15 16 18 20 21 23 24 25 26 28 30 31 33 34 35 36 36 38 40 39 37 35 32 30 28
34 34 34 34 34 34 34 34 34 34 34 31 29 28 27 26 26 28 28 28 27 26 25 24 23 22 20 19 18 17 16 15 14 14 13 12 11 10 7 8 8 6 4 3 2 1 1 2 3 5 7 8 9 9 9 10 12 12 12 13 14 16 17 19 22 23 25 26 27 28 29 30 31 32 33 34 35 35 37 38 38 37 35 34 33
35 35 35 34 34 34 34 34 34 35 34 31 28 29 29 29 29 29 28 28 28 27 25 24 24 22 21 19 18 17 16 15 14 13 13 12 11 10 9 10 9 6 4 3 2 1 0 1 3 4 6 7 8 8 8 9 11 12 12 13 14 15 17 20 22 24 26 27 28 29 28 28 29 30 31 32 33 34 35 36 38 39 37 36 35
36 35 35 34 34 34 34 34 35 35 34 31 29 31 32 31 30 29 29 29 28 27 26 25 24 23 22 20 18 17 15 15 14 13 12 12 11 10 11 11 9 6 4 3 3 2 1 1 2 3 5 6 7 7 7 9 10 12 13 13 14 15 17 19 21 23 25 27 27 27 27 27 27 28 28 30 32 33 35 36 38 40 40 39 39
35 35 35 34 34 35 34 34 34 35 32 29 30 33 33 32 31 30 30 29 28 28 27 25 24 23 22 20 19 17 15 14 13 12 12 11 11 11 12 11 9 6 4 3 3 3 3 2 2 3 4 5 6 6 7 8 9 11 12 13 14 15 16 17 19 21 23 24 25 26 27 26 27 27 28 29 31 33 34 35 36 38 39 38 39
34 33 34 34 34 35 35 34 34 33 31 29 31 33 33 31 31 32 32 31 29 28 27 26 25 24 22 20 18 16 15 14 13 13 12 12 12 12 12 11 9 7 5 4 3 4 3 3 3 4 4 5 6 6 7 8 8 10 11 13 14 15 15 15 17 18 20 22 24 25 27 27 27 29 29 29 30 32 33 34 34 36 37 35 37
34 33 34 34 34 34 35 35 33 32 31 32 33 34 33 32 32 33 34 34 32 31 29 27 25 24 22 20 18 16 14 14 14 14 14 12 12 13 12 11 9 7 6 5 5 5 4 4 4 4 5 6 6 6 6 7 8 9 11 11 12 13 14 15 16 17 18 20 22 24 26 27 28 29 30 30 30 30 32 33 33 34 35 35 33
34 33 33 34 34 33 34 34 34 32 32 32 33 33 33 33 32 32 33 34 32 30 28 27 25 22 20 18 17 15 14 12 11 13 14 12 12 13 12 11 9 8 7 7 6 6 6 5 5 5 5 6 6 7 7 8 9 9 9 10 11 12 13 15 17 17 18 19 20 23 25 26 27 28 29 30 30 30 30 32 32 33 34 34 32
33 32 32 33 33 33 34 33 33 33 33 33 32 31 30 31 31 31 32 32 30 27 24 22 20 19 17 15 14 11 7 5 7 11 14 13 13 13 12 11 10 9 8 8 7 7 7 6 6 5 6 6 7 7 8 9 10 10 10 10 11 11 13 14 15 16 17 18 19 20 22 24 26 27 28 29 29 29 29 30 31 32 33 32 32
31 30 31 32 33 33 34 33 32 33 33 34 33 30 28 27 28 28 30 30 28 25 21 18 15 15 14 12 11 10 6 4 7 11 13 14 14 14 13 11 10 10 9 8 8 8 8 8 7 7 6 7 7 8 9 10 11 12 12 11 11 11 12 13 13 14 16 17 18 19 20 22 24 25 26 27 28 29 29 29 30 32 32 31 30
31 30 31 32 33 33 33 33 33 32 32 33 33 31 29 26 25 25 28 29 27 24 22 19 17 16 14 12 11 11 8 6 6 9 12 13 14 14 13 12 11 10 10 9 9 9 9 9 9 8 8 8 8 8 9 10 11 12 12 13 12 12 12 12 13 14 15 16 17 18 19 21 22 23 24 26 27 28 29 29 29 30 31 31 31
31 30 29 30 31 32 32 32 33 33 33 33 32 31 30 29 26 25 25 26 26 25 23 22 21 19 17 16 15 13 11 8 7 8 11 13 14 14 15 13 12 11 11 10 10 10 9 10 10 10 10 10 10 10 10 11 11 12 12 13 14 13 13 13 13 14 15 16 17 18 19 19 21 22 23 24 25 26 27 27 28 28 29 30 31
30 31 31 31 32 31 31 32 33 33 33 33 32 31 31 31 29 27 24 22 23 23 24 24 23 21 19 18 17 16 15 12 9 9 11 13 14 16 16 15 13 12 11 10 11 11 10 10 10 9 10 11 11 11 12 12 12 13 13 14 15 15 14 14 15 15 16 17 17 18 19 19 20 21 22 23 24 25 25 26 26 27 27 27 29
30 31 32 32 32 31 31 32 32 32 32 33 32 32 31 30 30 28 26 24 23 22 22 23 22 21 20 18 17 17 17 15 12 11 12 14 16 17 17 16 15 13 11 10 11 11 12 11 11 10 11 11 12 12 13 13 13 13 14 15 16 17 17 17 17 17 17 18 18 18 19 19 19 20 21 21 22 23 24 24 24 25 25 25 26
29 29 29 29 29 29 30 31 32 32 33 33 32 32 31 30 29 28 25 24 23 22 21 21 20 19 18 17 16 18 18 17 15 14 15 16 17 18 18 18 16 14 12 11 11 11 12 13 13 12 12 13 13 13 13 14 14 14 14 15 17 18 18 18 18 18 19 19 19 19 19 19 19 19 20 21 21 21 21 22 23 24 24 24 24
29 29 30 30 29 29 30 30 31 32 33 32 32 31 30 29 28 27 25 23 23 22 21 20 20 19 18 18 18 19 19 18 16 16 16 18 19 20 20 19 18 16 14 13 12 12 13 14 14 14 14 14 14 14 15 15 15 15 15 16 17 18 19 19 19 19 19 19 20 20 20 20 19 19 19 20 21 21 20 21 22 23 23 23 23
29 29 30 31 31 29 28 28 28 29 30 30 30 30 29 28 26 26 25 24 23 22 22 22 22 21 20 20 21 21 20 18 17 18 19 19 20 21 21 20 19 18 16 15 14 14 15 15 15 15 16 16 16 16 16 17 17 17 17 18 18 18 19 19 19 19 19 20 20 20 20 20 19 19 19 20 20 20 20 20 20 21 22 22 22
30 29 30 30 30 29 28 28 28 28 28 28 28 28 28 27 25 25 25 24 23 24 24 24 23 22 21 21 21 22 21 20 21 21 21 21 21 20 20 20 20 19 19 18 17 17 17 17 17 17 17 17 18 18 18 19 19 19 20 20 21 21 21 21 21 21 22 22 22 21 21 21 20 20 20 20 20 20 20 20 20 20 20 21 21
30 29 28 28 28 27 27 27 27 27 27 28 28 28 27 27 26 26 25 24 25 25 25 24 23 22 21 20 21 22 23 23 23 22 21 21 21 20 19 19 19 19 20 19 19 18 18 18 17 17 17 18 18 19 20 21 21 21 22 23 24 24 24 24 24 25 25 26 26 26 25 23 22 21 21 21 21 20 20 20 21 20 20 20 21
30 29 28 27 27 25 24 24 25 26 27 27 28 28 27 27 27 26 25 25 26 26 25 25 23 21 20 20 20 21 22 22 21 21 20 19 19 18 18 17 17 18 18 19 19 19 19 19 18 18 18 19 19 20 21 22 22 23 24 25 26 27 28 28 28 28 28 28 29 30 29 27 24 23 24 24 23 23 22 21 21 21 21 21 21
29 29 28 27 26 25 25 25 26 27 27 27 27 27 27 27 26 25 25 25 26 26 26 25 22 20 19 19 19 19 20 20 19 19 18 17 17 16 16 16 17 17 18 18 18 18 18 18 19 19 19 19 19 20 21 22 23 24 25 26 27 28 29 30 30 30 30 30 31 32 32 30 28 26 25 26 25 26 25 25 24 23 23 22 22
28 28 27 26 26 26 26 28 29 29 29 29 28 27 26 26 25 25 25 25 26 26 25 23 21 19 18 18 17 18 19 19 18 18 17 17 16 17 17 17 17 18 18 18 18 17 17 17 18 18 19 19 19 20 22 23 24 25 27 28 28 29 30 30 30 30 30 30 30 30 31 31 30 29 27 25 25 25 26 26 26 26 26 25 24
25 25 24 24 25 26 27 28 29 29 29 29 28 27 26 26 25 25 25 25 25 24 23 21 19 19 18 18 18 19 19 19 18 18 18 18 18 18 18 18 19 19 19 18 18 17 16 16 16 17 18 18 19 21 22 24 26 27 27 28 28 28 28 28 28 28 28 27 27 27 27 28 28 28 27 26 24 23 23 24 25 25 26 26 26
24 24 24 24 25 26 26 27 27 27 27 26 26 26 26 26 25 25 24 24 23 23 21 19 19 19 19 20 20 20 20 20 19 19 19 19 19 19 18 18 18 18 18 17 17 16 16 16 16 17 18 19 20 22 24 26 27 28 27 27 26 26 26 25 25 25 25 25 25 25 25 25 26 27 27 27 26 24 24 25 25 25 25 26 26
23 23 23 24 25 24 24 25 25 26 26 26 26 26 25 24 24 23 23 22 22 21 20 19 19 20 20 20 20 20 20 19 19 18 18 19 18 18 17 17 17 16 16 16 16 16 17 17 17 19 20 21 22 23 25 27 28 27 26 25 24 23 24 24 24 24 24 24 24 24 25 25 26 26 27 28 28 27 27 26 26 26 27 27 27
22 22 22 22 22 22 22 23 24 25 25 25 25 24 24 23 23 22 22 22 22 21 21 21 20 20 20 20 19 19 18 17 17 17 17 17 17 16 15 14 14 14 14 15 16 17 18 18 19 20 20 21 21 23 24 25 26 25 23 22 22 22 23 24 24 24 24 24 24 25 25 26 26 27 27 28 28 28 28 28 28 28 28 28 28
19 18 18 19 19 20 21 22 23 23 22 21 21 20 20 21 22 22 22 22 22 22 22 22 21 20 19 19 18 17 16 16 15 15 16 16 15 14 14 14 14 14 16 16 17 18 19 19 19 20 20 21 21 22 23 23 22 22 21 21 21 21 23 23 24 24 23 23 23 23 23 24 25 25 26 27 27 27 27 27 27 27 27 27 28
16 15 15 16 17 18 20 22 22 22 21 19 18 18 19 21 21 22 22 22 22 22 22 22 21 19 18 18 18 17 16 15 14 14 15 15 14 14 14 14 15 16 17 18 18 19 19 20 20 21 21 21 20 20 19 19 19 19 19 19 20 20 21 21 21 22 21 21 21 21 22 22 23 24 24 25 25 25 25 26 26 26 25 26 27
13 12 11 12 14 16 19 21 22 22 21 19 19 19 20 21 22 22 21 22 22 21 21 20 19 18 17 17 17 17 16 15 14 14 15 15 14 14 15 15 16 17 17 18 18 19 20 20 19 19 18 17 16 15 15 16 16 16 17 18 18 19 19 19 19 20 20 20 21 21 21 21 21 22 22 22 23 23 24 25 25 25 25 25 26
9 8 8 10 13 16 18 21 22 21 20 19 19 20 21 21 21 21 20 20 20 19 19 18 16 15 15 15 15 15 15 14 14 14 15 15 15 15 16 17 17 17 17 18 18 18 17 16 14 13 12 12 12 12 13 13 14 14 15 16 16 17 17 17 18 19 19 20 20 20 20 20 20 20 21 21 22 23 23 24 25 25 24 25 26
Wind_Direction
165 162 156 155 156 158 160 159 157 157 156 155 152 149 151 151 150 152 151 152 156 152 147 144 142 140 138 135 133 131 130 127 123 120 115 111 110 108 106 102 99 96 92 88 83 79 75 72 67 62 58 54 50 46 43 40 37 33 29 23 20 16 5 350 323 313 329 340 339 339 344 343 341 345 344 342 342 342 341 342 342 341 339 337 335
163 162 157 154 154 154 156 155 155 156 155 154 152 152 153 154 155 155 153 155 158 156 151 147 145 143 139 135 134 133 131 128 125 121 117 114 112 110 107 103 99 95 91 86 81 77 73 69 64 60 56 52 49 45 41 38 37 33 29 26 20 18 13 358 340 318 323 337 342 342 345 345 341 343 345 342 340 341 340 340 342 340 338 336 335
162 162 159 156 155 153 154 154 157 157 155 154 154 154 156 157 159 159 156 157 158 157 154 150 147 144 139 135 135 135 132 129 126 123 120 117 115 111 107 102 99 95 90 86 81 76 72 67 63 59 56 52 48 44 41 36 35 33 28 25 21 17 16 8 354 336 322 331 340 341 342 344 342 342 345 342 340 340 339 339 340 339 337 336 335
161 161 160 157 156 155 154 155 157 157 155 155 156 157 158 159 161 161 159 159 159 157 155 152 150 145 139 136 136 136 134 131 128 125 122 119 116 112 107 102 97 94 89 84 79 74 69 65 61 58 54 51 46 40 38 34 30 30 27 23 21 16 14 12 4 351 333 329 337 341 342 342 342 344 345 342 340 339 338 338 338 337 336 335 335
162 160 158 156 154 155 154 155 157 157 156 157 158 160 161 161 162 163 162 161 159 157 155 153 151 144 139 138 138 138 136 133 130 126 123 121 116 111 107 102 97 92 87 82 77 72 67 63 58 55 51 47 43 36 31 30 27 26 25 21 18 16 13 12 7 360 347 335 335 341 344 344 343 346 347 344 340 339 339 339 338 337 336 335 335
161 159 157 154 153 155 156 158 159 159 159 159 160 162 162 162 163 164 164 162 159 157 155 153 150 144 140 140 140 140 139 136 132 128 125 121 116 111 106 102 96 91 85 80 75 70 66 62 56 52 48 44 39 33 27 26 26 24 23 20 17 15 14 11 7 2 354 345 341 342 345 346 345 344 348 347 341 339 339 338 337 340 339 336 336
158 158 157 155 156 157 159 161 162 162 162 162 162 163 163 164 164 164 165 164 160 158 156 152 148 144 142 142 142 143 141 138 134 130 126 120 116 112 107 102 97 90 85 80 75 71 65 61 55 49 46 41 34 28 23 23 25 25 22 19 17 15 13 11 7 3 357 352 349 346 345 347 346 344 346 348 344 341 343 339 335 338 341 337 335
158 159 159 158 159 160 162 164 164 163 163 162 163 163 163 165 165 165 166 165 162 159 156 151 146 144 143 142 143 144 143 140 137 132 127 121 117 114 108 104 98 91 87 81 75 72 65 59 55 49 44 40 32 25 21 19 22 24 22 20 18 16 14 11 7 4 359 354 351 348 346 346 347 346 347 350 348 344 343 339 332 333 337 336 333
160 161 161 161 161 162 163 163 163 163 162 162 163 163 163 166 166 166 166 164 162 159 156 152 147 143 140 140 141 143 142 140 137 133 128 124 120 115 110 105 100 93 88 82 75 70 64 57 53 48 43 38 30 24 23 21 21 23 22 20 19 17 15 12 8 4 0 356 351 350 348 347 347 348 348 348 346 340 338 337 332 330 332 332 332
161 161 161 161 162 163 162 162 162 162 162 163 163 164 165 168 168 167 166 165 163 160 156 153 148 143 138 137 138 138 137 136 135 133 129 125 122 118 113 106 101 96 88 81 75 68 62 56 49 43 38 34 28 25 27 28 26 25 23 22 21 19 16 13 10 6 2 357 352 351 348 345 347 348 346 343 341 339 338 337 333 333 334 332 331
162 161 161 161 162 162 161 161 161 162 163 164 164 165 168 169 169 168 166 165 163 161 158 155 151 145 140 137 136 133 132 132 132 132 129 127 124 120 116 108 101 95 86 80 75 68 62 55 47 39 33 29 27 27 31 31 28 26 24 24 24 21 18 16 12 9 5 359 355 354 350 344 346 348 346 344 343 341 338 336 334 336 338 336 331
162 162 161 161 161 162 161 161 161 162 164 164 164 166 169 170 170 168 167 166 164 162 161 159 155 150 146 143 140 136 133 131 129 129 128 128 126 122 118 111 102 93 85 80 74 69 63 54 45 38 30 27 25 26 31 32 29 27 24 25 28 27 24 21 16 13 9 2 357 356 353 346 346 349 349 346 343 341 339 338 337 338 337 336 330
161 160 161 161 162 162 162 161 161 162 163 163 164 166 169 170 170 170 168 167 165 164 163 163 161 157 154 152 149 144 141 136 132 128 126 126 127 125 119 111 102 93 86 82 75 68 61 51 45 38 29 25 24 24 27 28 28 28 28 28 31 31 29 26 23 19 13 8 1 358 358 353 348 351 353 350 344 342 341 340 339 338 336 333 326
161 161 161 162 163 162 162 162 162 162 163 164 164 166 169 170 170 170 169 168 167 166 165 166 165 164 161 159 156 155 151 147 141 132 126 127 129 127 121 111 102 93 86 82 76 67 57 48 43 36 26 23 23 22 23 24 24 24 27 30 31 30 27 24 23 21 18 15 9 4 5 3 356 355 359 356 351 346 343 341 339 337 332 329 326
163 162 161 161 162 162 163 162 162 162 164 165 165 167 170 171 170 171 170 169 169 168 167 168 168 168 168 165 162 161 161 159 154 143 131 129 132 130 122 112 102 91 84 82 76 68 57 45 40 33 25 22 20 19 19 19 19 20 23 26 27 27 25 21 19 18 17 18 16 11 11 10 6 5 5 3 358 353 350 347 345 338 332 331 334
161 162 161 162 163 163 163 162 162 164 164 164 166 168 171 171 171 171 171 170 170 169 169 170 170 170 171 170 167 166 166 166 164 158 144 135 135 135 126 116 105 92 84 82 77 71 55 42 36 29 23 20 16 16 17 15 14 17 20 21 20 20 21 20 18 16 14 17 19 18 17 16 16 14 12 9 5 359 358 359 356 348 340 339 341
162 163 162 161 162 164 164 164 164 165 165 166 169 171 172 173 174 173 172 170 170 170 170 171 172 173 172 173 173 170 168 168 168 167 160 147 141 140 134 125 112 96 88 83 78 72 56 39 32 26 21 18 14 12 13 12 12 15 17 16 15 15 14 13 13 14 14 15 18 22 23 22 22 21 18 16 12 7 4 2 358 352 347 345 342
163 161 160 164 168 169 169 169 169 168 169 171 171 171 173 177 177 176 175 173 171 171 171 171 172 174 175 176 177 174 172 171 169 170 170 163 154 148 144 137 121 103 96 92 81 72 58 38 27 24 21 17 12 9 10 11 11 13 14 12 12 13 11 7 6 7 9 12 15 20 24 24 23 23 22 19 17 15 12 5 359 355 351 348 343
165 164 168 175 175 173 173 174 173 171 171 172 171 170 174 179 180 180 179 177 172 171 172 172 171 173 176 177 176 174 173 172 172 173 175 176 172 163 155 149 136 118 111 103 88 77 64 40 26 25 22 16 10 7 8 9 10 12 11 9 10 10 8 5 4 3 6 10 14 17 20 23 23 23 23 22 20 19 17 12 6 1 354 348 347
167 170 175 175 172 172 174 174 173 172 172 173 171 170 173 178 182 183 182 179 175 172 172 173 171 170 172 173 173 172 172 172 173 177 181 183 185 182 171 161 152 138 126 114 94 82 70 42 27 23 20 16 9 5 5 7 9 11 10 10 10 7 2 2 4 4 5 10 13 15 18 20 22 22 21 21 21 20 20 17 14 8 359 352 353
168 171 172 169 170 172 173 173 173 174 175 174 171 169 170 175 182 187 184 180 177 173 172 172 170 167 168 169 170 171 172 173 174 178 184 187 189 191 189 178 169 155 133 118 100 85 69 44 26 17 16 14 8 4 4 6 8 10 12 12 9 4 359 360 3 5 6 9 11 14 16 17 19 20 20 20 21 20 20 20 18 14 10 4 0
169 170 169 169 171 172 172 174 175 175 175 174 171 169 169 171 180 188 186 180 178 175 172 172 170 166 166 168 170 171 173 176 178 179 183 187 189 196 204 192 181 169 142 120 106 94 69 36 23 14 11 10 6 3 5 7 9 12 14 13 9 5 3 3 4 7 8 9 11 14 15 15 16 17 17 18 19 20 20 20 19 18 19 20 15
169 169 168 169 171 172 173 174 175 174 176 176 173 171 170 170 177 184 184 179 176 174 173 173 171 167 166 169 171 173 174 177 181 182 185 190 195 202 207 196 186 177 157 138 117 103 66 15 13 11 7 3 3 6 8 11 16 17 16 16 13 11 10 10 11 11 10 10 12 13 14 14 13 13 13 14 15 17 18 20 20 20 22 24 24
168 168 168 169 170 172 174 175 176 177 178 178 176 174 172 171 173 179 181 178 176 174 173 173 173 170 169 169 171 173 175 178 183 187 191 198 203 205 202 194 188 180 168 166 177 187 251 338 348 360 2 359 0 6 11 15 19 21 20 19 17 15 15 15 15 14 13 13 12 11 11 11 11 11 12 12 13 15 17 20 21 21 22 24 25
168 167 168 169 170 171 173 174 177 179 180 181 181 177 173 170 171 175 178 178 177 174 173 174 174 171 171 171 171 173 176 179 184 189 194 199 202 201 196 192 189 183 173 183 214 226 240 307 327 341 353 355 356 3 12 17 21 22 22 21 20 17 17 16 16 16 14 13 12 10 10 10 10 11 12 13 14 15 16 19 21 22 23 24 24
168 167 168 170 171 172 172 173 176 180 183 187 186 181 176 172 171 175 178 179 178 176 174 174 175 174 173 174 174 176 180 183 186 189 192 196 198 196 193 192 190 185 184 202 225 230 242 282 316 326 333 343 349 356 7 16 21 22 22 23 23 21 18 16 15 15 14 13 11 11 10 9 10 11 13 14 15 15 15 16 17 19 21 21 20
167 167 169 170 172 173 173 174 177 181 185 188 186 183 180 177 176 178 180 180 179 179 177 177 177 177 177 177 177 180 184 189 194 196 195 196 196 194 193 193 193 192 199 218 231 235 244 268 297 308 312 323 338 351 1 7 12 15 19 23 24 23 22 19 17 15 13 11 11 11 12 12 11 11 12 14 16 15 14 15 15 17 18 18 16
169 169 170 172 173 175 176 177 180 182 184 187 186 185 183 182 182 184 186 186 184 182 182 182 183 182 180 179 181 186 193 201 205 201 198 198 196 194 194 196 197 199 208 220 231 237 244 260 282 298 306 311 322 338 352 359 4 7 11 16 20 21 21 20 20 18 14 11 11 12 13 14 14 13 12 13 14 14 13 14 15 16 18 19 16
170 170 172 172 174 176 177 179 182 183 184 186 189 190 189 190 190 191 193 193 192 189 187 187 187 185 183 182 184 189 198 209 209 201 198 199 198 196 196 198 201 206 213 221 229 235 241 253 272 289 303 312 320 332 343 352 359 1 2 6 10 14 16 17 19 19 16 13 12 12 13 14 14 14 13 12 13 13 13 13 14 14 16 18 16
170 171 172 173 175 177 178 180 183 184 184 186 187 189 192 195 197 198 197 197 197 197 196 193 188 185 186 190 192 194 200 206 203 199 198 197 197 198 199 203 207 211 216 222 230 237 242 249 264 281 297 312 325 335 342 346 349 352 355 359 1 5 10 13 15 15 15 14 12 11 11 12 13 13 13 11 11 11 11 12 12 13 14 14 13
170 172 173 174 176 178 179 180 182 184 184 186 186 186 188 192 198 202 202 199 198 200 202 201 196 193 195 198 201 205 210 209 205 203 200 196 197 199 203 209 213 216 221 228 237 244 246 250 261 275 288 302 317 329 335 339 341 343 345 349 352 357 1 3 6 8 8 8 8 8 8 9 10 11 11 10 10 10 10 10 10 10 11 11 9
172 173 174 176 178 180 180 180 181 182 183 185 186 187 185 184 189 197 201 200 201 204 207 209 212 212 214 216 215 215 216 220 222 214 205 200 201 204 208 215 219 222 228 236 245 252 253 254 261 270 280 291 305 319 325 328 334 336 336 337 341 346 350 351 353 356 357 357 359 360 1 2 4 6 7 8 8 9 10 9 9 9 8 8 8
173 172 173 176 178 180 181 181 182 183 184 184 186 186 185 182 183 189 196 202 206 210 212 216 220 224 227 230 232 231 230 233 240 229 214 206 206 208 213 219 223 228 235 242 250 255 256 258 264 270 276 285 295 307 315 320 326 329 329 330 332 335 339 340 341 344 346 347 348 350 353 354 356 358 1 4 5 6 8 8 8 8 8 7 6
175 175 177 180 181 181 183 183 184 185 186 187 187 187 187 186 187 188 192 198 204 210 215 219 222 226 230 233 236 235 231 231 239 238 223 212 210 213 217 221 225 232 240 247 253 255 254 259 268 274 277 283 290 298 307 315 320 323 325 328 330 331 332 333 334 336 339 339 341 343 344 346 348 350 353 356 359 1 4 5 5 5 6 5 4
179 179 180 181 182 183 184 185 186 187 188 189 190 191 191 191 193 194 196 198 202 208 214 218 223 227 230 232 232 229 224 225 233 236 226 216 213 216 220 223 227 233 241 250 255 255 253 258 268 276 280 284 288 292 301 309 315 319 322 326 329 331 332 333 334 335 335 335 337 339 339 340 341 342 343 347 351 354 357 1 2 2 2 2 2
179 178 179 181 184 185 186 187 189 191 192 193 194 195 196 196 198 200 202 204 206 210 214 219 223 224 225 225 223 220 218 223 230 231 225 219 217 219 222 225 228 234 243 250 253 255 255 258 265 274 280 284 288 291 296 303 309 315 319 322 325 327 330 332 333 334 334 334 335 336 337 337 337 337 337 339 343 346 349 353 356 358 359 359 359
178 178 180 184 188 189 189 190 193 194 195 195 196 196 197 199 200 202 204 207 210 213 215 214 212 209 209 212 214 214 217 223 228 226 222 220 221 223 225 228 231 236 243 247 249 253 257 260 265 273 279 283 287 290 293 297 302 307 313 317 320 322 323 326 327 328 329 331 332 334 335 336 337 336 333 333 336 339 341 344 347 351 354 356 357
180 181 184 187 190 190 189 191 194 195 195 195 195 195 196 198 200 202 205 208 210 212 210 206 203 203 207 210 212 214 218 221 221 220 221 222 225 227 229 232 235 240 245 248 249 252 257 261 266 272 277 281 285 288 291 295 299 301 304 309 312 315 317 319 320 320 321 323 326 330 331 333 336 336 332 331 333 334 334 336 339 341 345 349 352
181 184 188 190 192 192 192 193 195 196 195 193 194 194 195 196 199 202 205 207 209 208 206 204 205 210 214 215 214 215 217 218 219 221 224 226 229 232 234 237 239 242 245 248 251 253 258 262 267 271 276 280 283 286 289 293 297 299 300 301 303 306 309 312 313 314 315 316 318 321 323 327 330 331 330 330 331 331 331 331 332 332 334 337 341
180 184 188 188 188 191 194 194 194 195 195 195 195 195 196 199 201 203 204 206 207 207 207 209 213 218 222 222 220 219 219 221 224 227 229 232 235 238 240 241 243 245 247 249 252 255 261 265 269 273 276 279 282 285 289 293 296 298 299 298 298 300 303 305 307 308 310 312 314 315 317 321 322 322 323 326 327 328 328 328 328 328 327 327 330
181 182 184 185 186 189 193 195 197 200 200 200 199 200 201 203 204 206 208 209 209 210 213 218 223 228 231 231 229 226 227 229 232 234 235 237 239 241 243 245 247 248 250 251 254 260 266 271 274 275 276 278 282 286 289 292 295 297 298 299 299 299 301 303 304 304 306 308 311 313 315 318 319 318 318 320 321 321 321 322 323 323 322 322 323
180 180 182 185 189 193 196 199 202 203 202 202 203 204 206 207 207 209 212 213 214 217 221 225 229 233 235 233 230 227 230 235 239 240 240 241 243 245 248 251 253 255 258 261 264 269 273 275 275 275 275 277 282 286 290 293 295 298 300 302 302 302 303 305 306 307 308 309 312 314 316 317 318 318 317 318 317 316 315 316 317 317 318 319 318
183 184 186 190 194 198 200 202 202 200 200 202 204 205 208 211 212 214 216 218 220 223 227 230 233 234 232 229 225 224 228 234 238 240 242 244 247 251 254 257 259 262 265 269 271 275 279 278 274 272 273 276 281 286 289 292 296 299 301 304 305 305 306 308 310 313 314 314 315 316 316 316 316 316 316 316 316 315 314 314 313 313 314 314 314
187 189 191 194 196 198 199 200 201 201 202 203 204 205 209 212 215 216 218 221 225 230 233 235 234 231 227 224 221 222 227 232 237 242 247 251 255 258 260 262 264 266 269 272 275 277 280 280 277 275 276 278 282 287 290 293 297 299 302 305 307 308 309 310 312 314 315 314 314 314 314 314 314 314 314 315 315 314 313 313 312 311 311 310 310
189 190 191 191 192 194 196 198 201 203 203 204 205 207 210 213 215 217 220 224 230 235 236 233 230 227 225 225 226 229 234 238 243 248 253 256 260 264 265 265 267 269 270 274 278 279 280 281 281 280 281 282 285 289 292 295 297 300 304 307 308 309 310 311 312 311 310 309 310 310 310 310 310 311 312 314 314 312 311 311 310 308 308 307 306
189 190 190 189 190 193 197 200 202 202 203 205 207 209 211 214 217 219 223 228 233 235 232 227 225 226 229 233 238 244 248 250 250 251 252 255 259 265 268 268 268 269 271 274 277 280 283 284 284 283 283 284 287 290 293 294 297 301 305 308 308 307 306 306 307 306 305 305 305 305 304 304 304 305 307 310 311 311 310 310 309 307 306 306 305
188 189 191 193 195 198 201 202 202 202 203 205 208 211 215 218 220 223 227 230 232 231 229 226 227 231 237 244 251 255 257 255 252 250 252 257 262 268 272 272 272 273 275 277 281 284 285 286 286 286 287 289 291 292 294 296 299 303 306 307 305 302 300 302 303 303 302 302 302 303 303 302 302 302 304 307 310 311 311 311 310 308 307 306 304
187 189 194 199 202 203 204 203 203 204 206 208 212 217 222 226 228 229 230 231 230 230 230 232 235 240 245 250 254 256 256 254 253 252 256 263 269 274 278 279 279 279 281 283 285 287 287 287 288 290 292 293 294 294 295 297 300 302 303 303 300 298 298 300 302 303 305 305 305 306 307 307 307 308 309 310 312 313 313 313 312 311 310 308 306
187 190 196 202 204 205 206 206 207 209 212 215 219 225 231 234 234 232 231 231 232 234 237 241 244 247 247 248 250 251 252 252 253 255 258 264 271 275 278 279 279 280 282 285 287 289 289 290 292 293 294 294 294 294 295 296 298 298 298 298 298 298 299 301 303 306 308 310 312 313 313 313 313 314 314 315 316 316 316 317 316 316 314 312 309
188 196 208 216 219 219 217 215 214 215 216 217 221 228 233 235 234 232 232 234 235 238 242 245 247 248 247 247 247 247 247 250 255 258 262 267 273 277 280 281 281 282 284 286 287 288 290 291 291 292 293 293 293 293 294 295 296 296 297 297 298 299 302 305 308 311 314 316 318 319 319 318 318 317 317 319 319 319 319 319 318 317 317 314 312
186 203 219 226 227 225 223 221 220 220 221 223 227 231 233 234 234 234 235 236 235 235 237 240 242 245 246 247 246 246 250 255 260 263 264 267 272 276 280 283 285 286 287 287 287 288 288 288 288 288 288 288 290 291 292 294 295 296 297 299 300 303 307 310 313 315 318 319 321 323 323 323 323 323 322 321 320 318 317 316 315 315 315 314 312